Time,TemperatureF,DewpointF,PressureIn,WindDirection,WindDirectionDegrees,WindSpeedMPH,WindSpeedGustMPH,Humidity,HourlyPrecipIn,Conditions,Clouds,dailyrainin,SolarRadiationWatts/m^2,SoftwareType,DateUTC
2013-03-16 00:00:00,60.4,52.1,25.96,SSE,161,3.0,4.0,74,0.00,,,0.00,0,Wunderground v.1.15,2013-03-16 06:00:00,
2013-03-16 00:10:00,60.6,50.8,25.96,NNE,23,3.0,6.0,70,0.00,,,0.00,0,Wunderground v.1.15,2013-03-16 06:10:00,
2013-03-16 00:15:00,61.2,50.2,25.96,NW,313,3.0,6.0,67,0.00,,,0.00,0,Wunderground v.1.15,2013-03-16 06:15:00,
2013-03-16 00:25:00,61.7,50.6,25.96,NNE,17,3.0,6.0,67,0.00,,,0.00,0,Wunderground v.1.15,2013-03-16 06:25:00,
2013-03-16 00:35:00,61.5,49.6,25.96,NW,324,3.0,5.0,65,0.00,,,0.00,0,Wunderground v.1.15,2013-03-16 06:35:00,
2013-03-16 00:45:00,61.5,49.2,25.96,NE,51,2.0,3.0,64,0.00,,,0.00,0,Wunderground v.1.15,2013-03-16 06:45:00,
2013-03-16 00:55:00,61.7,49.0,25.95,NNW,338,3.0,7.0,63,0.00,,,0.00,0,Wunderground v.1.15,2013-03-16 06:55:00,
2013-03-16 01:00:00,61.9,49.2,25.95,NNE,17,3.0,7.0,63,0.00,,,0.00,0,Wunderground v.1.15,2013-03-16 07:00:00,
2013-03-16 01:10:00,61.9,50.0,25.95,ESE,103,4.0,5.0,65,0.00,,,0.00,0,Wunderground v.1.15,2013-03-16 07:10:00,
2013-03-16 01:20:00,61.5,49.6,25.94,NE,55,4.0,4.0,65,0.00,,,0.00,0,Wunderground v.1.15,2013-03-16 07:20:00,
2013-03-16 01:25:00,61.7,49.8,25.94,North,360,4.0,4.0,65,0.00,,,0.00,0,Wunderground v.1.15,2013-03-16 07:25:00,
2013-03-16 01:35:00,61.7,49.8,25.94,East,83,3.0,4.0,65,0.00,,,0.00,0,Wunderground v.1.15,2013-03-16 07:35:00,
2013-03-16 01:45:00,61.7,49.4,25.94,East,84,2.0,5.0,64,0.00,,,0.00,0,Wunderground v.1.15,2013-03-16 07:45:00,
2013-03-16 01:55:00,61.7,48.5,25.94,SE,125,4.0,6.0,62,0.00,,,0.00,0,Wunderground v.1.15,2013-03-16 07:55:00,
2013-03-16 02:05:00,61.5,49.2,25.93,West,267,4.0,5.0,64,0.00,,,0.00,0,Wunderground v.1.15,2013-03-16 08:05:00,
2013-03-16 02:10:00,61.5,49.2,25.93,WNW,284,4.0,4.0,64,0.00,,,0.00,0,Wunderground v.1.15,2013-03-16 08:10:00,
2013-03-16 02:20:00,61.7,49.0,25.93,SSE,159,1.0,1.0,63,0.00,,,0.00,0,Wunderground v.1.15,2013-03-16 08:20:00,
2013-03-16 02:30:00,61.7,49.4,25.93,East,82,3.0,3.0,64,0.00,,,0.00,0,Wunderground v.1.15,2013-03-16 08:30:00,
2013-03-16 02:40:00,61.4,49.9,25.93,East,96,3.0,5.0,66,0.00,,,0.00,0,Wunderground v.1.15,2013-03-16 08:40:00,
2013-03-16 02:45:00,61.4,49.5,25.92,East,88,3.0,5.0,65,0.00,,,0.00,0,Wunderground v.1.15,2013-03-16 08:45:00,
2013-03-16 02:55:00,61.5,49.6,25.93,ESE,111,2.0,5.0,65,0.00,,,0.00,0,Wunderground v.1.15,2013-03-16 08:55:00,
2013-03-16 03:05:00,61.5,50.0,25.93,East,79,3.0,5.0,66,0.00,,,0.00,0,Wunderground v.1.15,2013-03-16 09:05:00,
2013-03-16 03:15:00,61.7,50.2,25.93,ESE,123,4.0,11.0,66,0.00,,,0.00,0,Wunderground v.1.15,2013-03-16 09:15:00,
2013-03-16 03:20:00,61.7,50.2,25.93,SSE,156,4.0,4.0,66,0.00,,,0.00,0,Wunderground v.1.15,2013-03-16 09:20:00,
2013-03-16 03:30:00,61.5,50.8,25.93,SE,141,2.0,2.0,68,0.00,,,0.00,0,Wunderground v.1.15,2013-03-16 09:30:00,
2013-03-16 03:40:00,61.4,51.1,25.92,East,88,4.0,4.0,69,0.00,,,0.00,0,Wunderground v.1.15,2013-03-16 09:40:00,
2013-03-16 03:45:00,61.2,50.9,25.93,ESE,107,3.0,4.0,69,0.00,,,0.00,0,Wunderground v.1.15,2013-03-16 09:45:00,
2013-03-16 03:55:00,61.1,50.8,25.92,NE,45,3.0,4.0,69,0.00,,,0.00,0,Wunderground v.1.15,2013-03-16 09:55:00,
2013-03-16 04:00:00,61.1,50.8,25.92,North,360,3.0,4.0,69,0.00,,,0.00,0,Wunderground v.1.15,2013-03-16 10:00:00,
2013-03-16 04:10:00,61.5,50.4,25.92,East,91,3.0,4.0,67,0.00,,,0.00,0,Wunderground v.1.15,2013-03-16 10:10:00,
2013-03-16 04:15:00,61.7,50.6,25.93,East,82,3.0,4.0,67,0.00,,,0.00,0,Wunderground v.1.15,2013-03-16 10:15:00,
2013-03-16 04:25:00,61.5,50.8,25.92,East,86,2.0,3.0,68,0.00,,,0.00,0,Wunderground v.1.15,2013-03-16 10:25:00,
2013-03-16 04:35:00,61.7,50.2,25.93,ENE,76,3.0,3.0,66,0.00,,,0.00,0,Wunderground v.1.15,2013-03-16 10:35:00,
2013-03-16 04:45:00,61.7,50.2,25.93,East,88,3.0,6.0,66,0.00,,,0.00,0,Wunderground v.1.15,2013-03-16 10:45:00,
2013-03-16 04:50:00,61.5,50.0,25.93,East,91,5.0,5.0,66,0.00,,,0.00,0,Wunderground v.1.15,2013-03-16 10:50:00,
2013-03-16 05:00:00,61.4,50.3,25.93,East,82,4.0,7.0,67,0.00,,,0.00,0,Wunderground v.1.15,2013-03-16 11:00:00,
2013-03-16 05:10:00,61.1,50.8,25.93,SE,138,4.0,6.0,69,0.00,,,0.00,0,Wunderground v.1.15,2013-03-16 11:10:00,
2013-03-16 05:15:00,60.9,51.0,25.93,South,187,4.0,6.0,70,0.00,,,0.00,0,Wunderground v.1.15,2013-03-16 11:15:00,
2013-03-16 05:25:00,60.8,51.0,25.93,SE,137,4.0,5.0,70,0.00,,,0.00,0,Wunderground v.1.15,2013-03-16 11:25:00,
2013-03-16 05:35:00,60.8,50.6,25.94,North,355,2.0,3.0,69,0.00,,,0.00,0,Wunderground v.1.15,2013-03-16 11:35:00,
2013-03-16 05:45:00,60.8,51.3,25.94,SE,124,3.0,6.0,71,0.00,,,0.00,5,Wunderground v.1.15,2013-03-16 11:45:00,
2013-03-16 05:50:00,60.8,51.3,25.94,ESE,109,3.0,4.0,71,0.00,,,0.00,9,Wunderground v.1.15,2013-03-16 11:50:00,
2013-03-16 06:00:00,60.6,51.1,25.94,West,265,3.0,4.0,71,0.00,,,0.00,14,Wunderground v.1.15,2013-03-16 12:00:00,
2013-03-16 06:10:00,61.2,50.9,25.95,South,188,3.0,3.0,69,0.00,,,0.00,60,Wunderground v.1.15,2013-03-16 12:10:00,
2013-03-16 06:20:00,62.2,51.1,25.95,ESE,122,3.0,4.0,67,0.00,,,0.00,98,Wunderground v.1.15,2013-03-16 12:20:00,
2013-03-16 06:25:00,62.5,51.4,25.95,NNE,22,4.0,8.0,67,0.00,,,0.00,69,Wunderground v.1.15,2013-03-16 12:25:00,
2013-03-16 06:35:00,63.0,51.5,25.95,SE,143,4.0,4.0,66,0.00,,,0.00,151,Wunderground v.1.15,2013-03-16 12:35:00,
2013-03-16 06:45:00,63.4,51.8,25.96,ENE,66,3.0,3.0,66,0.00,,,0.00,190,Wunderground v.1.15,2013-03-16 12:45:00,
2013-03-16 06:55:00,64.1,51.7,25.96,East,101,3.0,4.0,64,0.00,,,0.00,229,Wunderground v.1.15,2013-03-16 12:55:00,
2013-03-16 07:00:00,64.4,52.0,25.96,North,5,3.0,6.0,64,0.00,,,0.00,250,Wunderground v.1.15,2013-03-16 13:00:00,
2013-03-16 07:05:00,64.4,52.0,25.96,NW,318,3.0,6.0,64,0.00,,,0.00,264,Wunderground v.1.15,2013-03-16 13:05:00,
2013-03-16 07:15:00,65.1,52.2,25.97,SE,128,4.0,5.0,63,0.00,,,0.00,306,Wunderground v.1.15,2013-03-16 13:15:00,
2013-03-16 07:25:00,65.5,52.1,25.97,ENE,77,4.0,4.0,62,0.00,,,0.00,346,Wunderground v.1.15,2013-03-16 13:25:00,
2013-03-16 07:30:00,65.9,52.1,25.97,SE,142,3.0,5.0,61,0.00,,,0.00,364,Wunderground v.1.15,2013-03-16 13:30:00,
2013-03-16 07:40:00,66.0,52.6,25.97,SE,146,3.0,3.0,62,0.00,,,0.00,401,Wunderground v.1.15,2013-03-16 13:40:00,
2013-03-16 07:45:00,66.3,52.9,25.98,NE,39,4.0,4.0,62,0.00,,,0.00,420,Wunderground v.1.15,2013-03-16 13:45:00,
2013-03-16 07:55:00,67.2,53.3,25.98,SSW,194,3.0,4.0,61,0.00,,,0.00,459,Wunderground v.1.15,2013-03-16 13:55:00,
2013-03-16 08:05:00,67.7,53.3,25.98,ENE,62,4.0,5.0,60,0.00,,,0.00,496,Wunderground v.1.15,2013-03-16 14:05:00,
2013-03-16 08:15:00,67.8,53.4,25.98,NNW,333,4.0,4.0,60,0.00,,,0.00,529,Wunderground v.1.15,2013-03-16 14:15:00,
2013-03-16 08:25:00,68.7,53.8,25.98,NE,40,4.0,9.0,59,0.00,,,0.00,564,Wunderground v.1.15,2013-03-16 14:25:00,
2013-03-16 08:35:00,69.0,53.6,25.98,ESE,107,4.0,9.0,58,0.00,,,0.00,601,Wunderground v.1.15,2013-03-16 14:35:00,
2013-03-16 08:45:00,69.3,53.4,25.98,NNW,328,5.0,5.0,57,0.00,,,0.00,635,Wunderground v.1.15,2013-03-16 14:45:00,
2013-03-16 08:55:00,69.2,53.8,25.98,SE,130,6.0,6.0,58,0.00,,,0.00,664,Wunderground v.1.15,2013-03-16 14:55:00,
2013-03-16 09:10:00,70.0,55.0,25.99,East,94,5.0,5.0,59,0.00,,,0.00,710,Wunderground v.1.15,2013-03-16 15:10:00,
2013-03-16 09:20:00,70.7,55.2,25.98,West,278,6.0,6.0,58,0.00,,,0.00,737,Wunderground v.1.15,2013-03-16 15:20:00,
2013-03-16 09:30:00,71.4,55.9,25.98,NW,325,4.0,4.0,58,0.00,,,0.00,768,Wunderground v.1.15,2013-03-16 15:30:00,
2013-03-16 09:40:00,70.8,55.8,25.98,North,355,6.0,12.0,59,0.00,,,0.00,788,Wunderground v.1.15,2013-03-16 15:40:00,
2013-03-16 09:45:00,70.7,55.7,25.98,East,80,7.0,12.0,59,0.00,,,0.00,800,Wunderground v.1.15,2013-03-16 15:45:00,
2013-03-16 09:55:00,70.5,55.9,25.98,East,91,6.0,13.0,60,0.00,,,0.00,819,Wunderground v.1.15,2013-03-16 15:55:00,
2013-03-16 10:05:00,71.2,56.6,25.97,North,360,5.0,6.0,60,0.00,,,0.00,842,Wunderground v.1.15,2013-03-16 16:05:00,
2013-03-16 10:10:00,71.2,56.6,25.97,NW,323,6.0,9.0,60,0.00,,,0.00,851,Wunderground v.1.15,2013-03-16 16:10:00,
2013-03-16 10:20:00,70.8,56.7,25.96,ENE,70,7.0,12.0,61,0.00,,,0.00,867,Wunderground v.1.15,2013-03-16 16:20:00,
2013-03-16 10:30:00,70.7,57.0,25.96,ENE,59,7.0,7.0,62,0.00,,,0.00,886,Wunderground v.1.15,2013-03-16 16:30:00,
2013-03-16 10:40:00,72.0,57.4,25.95,ESE,112,6.0,6.0,60,0.00,,,0.00,904,Wunderground v.1.15,2013-03-16 16:40:00,
2013-03-16 10:50:00,71.4,57.7,25.96,ESE,105,7.0,7.0,62,0.00,,,0.00,905,Wunderground v.1.15,2013-03-16 16:50:00,
2013-03-16 10:55:00,71.4,57.7,25.95,WNW,302,7.0,7.0,62,0.00,,,0.00,912,Wunderground v.1.15,2013-03-16 16:55:00,
2013-03-16 11:05:00,71.5,57.8,25.95,NE,46,7.0,9.0,62,0.00,,,0.00,921,Wunderground v.1.15,2013-03-16 17:05:00,
2013-03-16 11:15:00,72.2,58.0,25.94,ENE,74,5.0,12.0,61,0.00,,,0.00,928,Wunderground v.1.15,2013-03-16 17:15:00,
2013-03-16 11:25:00,72.2,58.0,25.94,NE,36,7.0,8.0,61,0.00,,,0.00,930,Wunderground v.1.15,2013-03-16 17:25:00,
2013-03-16 11:35:00,71.7,57.5,25.93,NNW,343,8.0,12.0,61,0.00,,,0.00,932,Wunderground v.1.15,2013-03-16 17:35:00,
2013-03-16 11:40:00,71.9,57.7,25.94,North,355,7.0,7.0,61,0.00,,,0.00,946,Wunderground v.1.15,2013-03-16 17:40:00,
2013-03-16 11:50:00,72.0,58.3,25.93,ENE,65,8.0,8.0,62,0.00,,,0.00,939,Wunderground v.1.15,2013-03-16 17:50:00,
2013-03-16 12:00:00,72.4,58.2,25.93,NE,46,7.0,8.0,61,0.00,,,0.00,933,Wunderground v.1.15,2013-03-16 18:00:00,
2013-03-16 12:05:00,72.2,58.5,25.93,North,360,7.0,8.0,62,0.00,,,0.00,930,Wunderground v.1.15,2013-03-16 18:05:00,
2013-03-16 12:15:00,72.6,58.4,25.93,WNW,288,7.0,8.0,61,0.00,,,0.00,925,Wunderground v.1.15,2013-03-16 18:15:00,
2013-03-16 12:25:00,73.1,58.4,25.92,NNW,345,7.0,12.0,60,0.00,,,0.00,921,Wunderground v.1.15,2013-03-16 18:25:00,
2013-03-16 12:35:00,72.9,58.7,25.92,NNW,337,7.0,7.0,61,0.00,,,0.00,916,Wunderground v.1.15,2013-03-16 18:35:00,
2013-03-16 12:50:00,73.4,58.7,25.92,East,95,6.0,6.0,60,0.00,,,0.00,895,Wunderground v.1.15,2013-03-16 18:50:00,
2013-03-16 12:55:00,73.4,58.7,25.92,North,360,6.0,9.0,60,0.00,,,0.00,884,Wunderground v.1.15,2013-03-16 18:55:00,
2013-03-16 13:00:00,73.1,58.8,25.92,ESE,112,6.0,6.0,61,0.00,,,0.00,872,Wunderground v.1.15,2013-03-16 19:00:00,
2013-03-16 13:10:00,73.2,58.9,25.92,SE,130,6.0,6.0,61,0.00,,,0.00,863,Wunderground v.1.15,2013-03-16 19:10:00,
2013-03-16 13:15:00,73.4,59.1,25.91,NW,312,7.0,7.0,61,0.00,,,0.00,846,Wunderground v.1.15,2013-03-16 19:15:00,
2013-03-16 13:20:00,73.4,58.7,25.92,NE,39,6.0,6.0,60,0.00,,,0.00,828,Wunderground v.1.15,2013-03-16 19:20:00,
2013-03-16 13:25:00,73.8,58.6,25.91,WSW,248,5.0,6.0,59,0.00,,,0.00,828,Wunderground v.1.15,2013-03-16 19:25:00,
2013-03-16 13:35:00,73.4,59.1,25.91,NNE,28,7.0,7.0,61,0.00,,,0.00,807,Wunderground v.1.15,2013-03-16 19:35:00,
2013-03-16 13:40:00,73.6,58.4,25.91,NNE,25,7.0,8.0,59,0.00,,,0.00,798,Wunderground v.1.15,2013-03-16 19:40:00,
2013-03-16 13:45:00,73.6,58.4,25.90,NNE,21,6.0,8.0,59,0.00,,,0.00,780,Wunderground v.1.15,2013-03-16 19:45:00,
2013-03-16 13:50:00,74.3,58.6,25.90,NE,46,6.0,10.0,58,0.00,,,0.00,772,Wunderground v.1.15,2013-03-16 19:50:00,
2013-03-16 13:55:00,73.8,58.6,25.90,ENE,62,7.0,10.0,59,0.00,,,0.00,763,Wunderground v.1.15,2013-03-16 19:55:00,
2013-03-16 14:00:00,73.4,58.2,25.90,NNE,24,8.0,8.0,59,0.00,,,0.00,747,Wunderground v.1.15,2013-03-16 20:00:00,
2013-03-16 14:10:00,73.6,58.4,25.89,ENE,71,6.0,6.0,59,0.00,,,0.00,731,Wunderground v.1.15,2013-03-16 20:10:00,
2013-03-16 14:15:00,73.4,58.7,25.89,ESE,103,7.0,9.0,60,0.00,,,0.00,714,Wunderground v.1.15,2013-03-16 20:15:00,
2013-03-16 14:25:00,74.1,58.9,25.88,NW,316,6.0,7.0,59,0.00,,,0.00,682,Wunderground v.1.15,2013-03-16 20:25:00,
2013-03-16 14:30:00,74.1,58.9,25.89,ENE,69,6.0,6.0,59,0.00,,,0.00,656,Wunderground v.1.15,2013-03-16 20:30:00,
2013-03-16 14:40:00,73.6,58.9,25.89,ESE,121,6.0,6.0,60,0.00,,,0.00,640,Wunderground v.1.15,2013-03-16 20:40:00,
2013-03-16 14:45:00,73.8,58.6,25.88,NNE,20,5.0,9.0,59,0.00,,,0.00,615,Wunderground v.1.15,2013-03-16 20:45:00,
2013-03-16 14:55:00,73.6,59.3,25.89,NNW,336,7.0,12.0,61,0.00,,,0.00,575,Wunderground v.1.15,2013-03-16 20:55:00,
2013-03-16 15:00:00,73.4,59.1,25.88,SE,142,7.0,7.0,61,0.00,,,0.00,552,Wunderground v.1.15,2013-03-16 21:00:00,
2013-03-16 15:05:00,73.4,58.7,25.88,SE,126,6.0,7.0,60,0.00,,,0.00,533,Wunderground v.1.15,2013-03-16 21:05:00,
2013-03-16 15:10:00,73.4,59.1,25.88,East,79,6.0,6.0,61,0.00,,,0.00,524,Wunderground v.1.15,2013-03-16 21:10:00,
2013-03-16 15:15:00,73.4,58.7,25.88,NW,311,5.0,8.0,60,0.00,,,0.00,504,Wunderground v.1.15,2013-03-16 21:15:00,
2013-03-16 15:20:00,73.1,59.3,25.88,ENE,71,6.0,6.0,62,0.00,,,0.00,483,Wunderground v.1.15,2013-03-16 21:20:00,
2013-03-16 15:25:00,73.1,59.3,25.88,North,11,5.0,15.0,62,0.00,,,0.00,471,Wunderground v.1.15,2013-03-16 21:25:00,
2013-03-16 15:35:00,72.2,59.3,25.89,NE,47,8.0,8.0,64,0.00,,,0.00,424,Wunderground v.1.15,2013-03-16 21:35:00,
2013-03-16 15:40:00,71.7,59.3,25.88,NNW,333,7.0,7.0,65,0.00,,,0.00,413,Wunderground v.1.15,2013-03-16 21:40:00,
2013-03-16 15:45:00,72.0,59.2,25.89,NNE,20,6.0,7.0,64,0.00,,,0.00,397,Wunderground v.1.15,2013-03-16 21:45:00,
2013-03-16 15:50:00,71.7,59.3,25.88,ENE,74,5.0,5.0,65,0.00,,,0.00,371,Wunderground v.1.15,2013-03-16 21:50:00,
2013-03-16 16:00:00,71.2,58.8,25.89,East,95,5.0,5.0,65,0.00,,,0.00,338,Wunderground v.1.15,2013-03-16 22:00:00,
2013-03-16 16:05:00,71.4,59.0,25.89,NE,53,6.0,6.0,65,0.00,,,0.00,299,Wunderground v.1.15,2013-03-16 22:05:00,
2013-03-16 16:10:00,71.0,59.1,25.89,SSE,159,6.0,6.0,66,0.00,,,0.00,297,Wunderground v.1.15,2013-03-16 22:10:00,
2013-03-16 16:20:00,71.0,59.1,25.89,North,5,5.0,5.0,66,0.00,,,0.00,244,Wunderground v.1.15,2013-03-16 22:20:00,
2013-03-16 16:25:00,70.5,59.0,25.89,NE,55,6.0,6.0,67,0.00,,,0.00,241,Wunderground v.1.15,2013-03-16 22:25:00,
2013-03-16 16:30:00,70.3,58.8,25.89,ENE,59,5.0,8.0,67,0.00,,,0.00,214,Wunderground v.1.15,2013-03-16 22:30:00,
2013-03-16 16:40:00,70.0,59.0,25.90,ESE,118,6.0,6.0,68,0.00,,,0.00,188,Wunderground v.1.15,2013-03-16 22:40:00,
2013-03-16 16:45:00,70.2,59.1,25.90,NW,320,4.0,6.0,68,0.00,,,0.00,163,Wunderground v.1.15,2013-03-16 22:45:00,
2013-03-16 16:55:00,70.0,59.4,25.91,North,5,5.0,6.0,69,0.00,,,0.00,130,Wunderground v.1.15,2013-03-16 22:55:00,
2013-03-16 17:00:00,69.7,59.1,25.90,NNW,346,4.0,5.0,69,0.00,,,0.00,100,Wunderground v.1.15,2013-03-16 23:00:00,
2013-03-16 17:05:00,69.3,59.1,25.91,NNW,343,4.0,5.0,70,0.00,,,0.00,39,Wunderground v.1.15,2013-03-16 23:05:00,
2013-03-16 17:10:00,69.2,59.0,25.91,North,360,4.0,4.0,70,0.00,,,0.00,37,Wunderground v.1.15,2013-03-16 23:10:00,
2013-03-16 17:20:00,68.8,59.0,25.91,NE,42,4.0,6.0,71,0.00,,,0.00,28,Wunderground v.1.15,2013-03-16 23:20:00,
2013-03-16 17:25:00,68.7,58.9,25.91,East,98,4.0,7.0,71,0.00,,,0.00,25,Wunderground v.1.15,2013-03-16 23:25:00,
2013-03-16 17:30:00,68.2,58.8,25.91,SSE,150,4.0,7.0,72,0.00,,,0.00,18,Wunderground v.1.15,2013-03-16 23:30:00,
2013-03-16 17:40:00,67.8,58.4,25.91,SE,126,5.0,5.0,72,0.00,,,0.00,7,Wunderground v.1.15,2013-03-16 23:40:00,
2013-03-16 17:45:00,67.7,58.7,25.92,ENE,73,4.0,5.0,73,0.00,,,0.00,0,Wunderground v.1.15,2013-03-16 23:45:00,
2013-03-16 17:55:00,67.3,58.7,25.92,SSW,196,3.0,7.0,74,0.00,,,0.00,0,Wunderground v.1.15,2013-03-16 23:55:00,
2013-03-16 18:00:00,67.2,58.6,25.92,ENE,78,3.0,3.0,74,0.00,,,0.00,0,Wunderground v.1.15,2013-03-17 00:00:00,
2013-03-16 18:10:00,67.2,59.0,25.93,NE,54,3.0,5.0,75,0.00,,,0.00,0,Wunderground v.1.15,2013-03-17 00:10:00,
2013-03-16 18:20:00,67.2,59.0,25.93,SE,146,3.0,4.0,75,0.00,,,0.00,0,Wunderground v.1.15,2013-03-17 00:20:00,
2013-03-16 18:25:00,67.3,59.1,25.94,SSE,148,3.0,4.0,75,0.00,,,0.00,0,Wunderground v.1.15,2013-03-17 00:25:00,
2013-03-16 18:30:00,67.3,59.1,25.94,SE,132,3.0,4.0,75,0.00,,,0.00,0,Wunderground v.1.15,2013-03-17 00:30:00,
2013-03-16 18:40:00,66.7,58.9,25.94,NNE,29,2.0,3.0,76,0.00,,,0.00,0,Wunderground v.1.15,2013-03-17 00:40:00,
2013-03-16 18:45:00,66.5,58.7,25.94,NNW,330,3.0,3.0,76,0.00,,,0.00,0,Wunderground v.1.15,2013-03-17 00:45:00,
2013-03-16 18:50:00,66.3,58.5,25.94,South,172,4.0,4.0,76,0.00,,,0.00,0,Wunderground v.1.15,2013-03-17 00:50:00,
2013-03-16 18:55:00,66.2,58.4,25.94,East,84,4.0,4.0,76,0.00,,,0.00,0,Wunderground v.1.15,2013-03-17 00:55:00,
2013-03-16 19:00:00,66.0,58.6,25.94,SE,124,3.0,5.0,77,0.00,,,0.00,0,Wunderground v.1.15,2013-03-17 01:00:00,
2013-03-16 19:05:00,65.9,58.5,25.94,NNE,17,3.0,5.0,77,0.00,,,0.00,0,Wunderground v.1.15,2013-03-17 01:05:00,
2013-03-16 19:15:00,65.5,58.5,25.94,NE,44,4.0,4.0,78,0.00,,,0.00,0,Wunderground v.1.15,2013-03-17 01:15:00,
2013-03-16 19:20:00,65.4,58.4,25.95,SE,128,3.0,3.0,78,0.00,,,0.00,0,Wunderground v.1.15,2013-03-17 01:20:00,
2013-03-16 19:25:00,65.4,58.4,25.95,North,355,4.0,6.0,78,0.00,,,0.00,0,Wunderground v.1.15,2013-03-17 01:25:00,
2013-03-16 19:35:00,65.2,58.2,25.95,ESE,107,4.0,4.0,78,0.00,,,0.00,0,Wunderground v.1.15,2013-03-17 01:35:00,
2013-03-16 19:40:00,65.1,58.1,25.95,SSE,167,3.0,4.0,78,0.00,,,0.00,0,Wunderground v.1.15,2013-03-17 01:40:00,
2013-03-16 19:45:00,65.1,58.1,25.95,NNW,329,3.0,4.0,78,0.00,,,0.00,0,Wunderground v.1.15,2013-03-17 01:45:00,
2013-03-16 19:55:00,64.9,58.2,25.96,ENE,76,4.0,4.0,79,0.00,,,0.00,0,Wunderground v.1.15,2013-03-17 01:55:00,
2013-03-16 20:00:00,64.7,58.0,25.96,East,80,4.0,4.0,79,0.00,,,0.00,0,Wunderground v.1.15,2013-03-17 02:00:00,
2013-03-16 20:10:00,64.6,57.9,25.97,East,98,2.0,5.0,79,0.00,,,0.00,0,Wunderground v.1.15,2013-03-17 02:10:00,
2013-03-16 20:15:00,64.6,57.6,25.97,NE,47,2.0,5.0,78,0.00,,,0.00,0,Wunderground v.1.15,2013-03-17 02:15:00,
2013-03-16 20:20:00,64.6,57.6,25.97,ESE,115,3.0,3.0,78,0.00,,,0.00,0,Wunderground v.1.15,2013-03-17 02:20:00,
2013-03-16 20:25:00,64.7,57.3,25.97,ESE,102,3.0,3.0,77,0.00,,,0.00,0,Wunderground v.1.15,2013-03-17 02:25:00,
2013-03-16 20:30:00,64.7,57.0,25.97,NE,51,3.0,3.0,76,0.00,,,0.00,0,Wunderground v.1.15,2013-03-17 02:30:00,
2013-03-16 20:40:00,65.1,57.0,25.97,SE,139,4.0,4.0,75,0.00,,,0.00,0,Wunderground v.1.15,2013-03-17 02:40:00,
2013-03-16 20:45:00,65.1,57.0,25.98,SE,141,4.0,4.0,75,0.00,,,0.00,0,Wunderground v.1.15,2013-03-17 02:45:00,
2013-03-16 20:55:00,65.2,56.3,25.98,East,92,3.0,3.0,73,0.00,,,0.00,0,Wunderground v.1.15,2013-03-17 02:55:00,
2013-03-16 21:05:00,65.1,56.6,25.98,SE,144,2.0,5.0,74,0.00,,,0.00,0,Wunderground v.1.15,2013-03-17 03:05:00,
2013-03-16 21:10:00,64.9,56.4,25.98,ESE,110,3.0,3.0,74,0.00,,,0.00,0,Wunderground v.1.15,2013-03-17 03:10:00,
2013-03-16 21:15:00,64.9,56.4,25.98,ESE,113,3.0,4.0,74,0.00,,,0.00,0,Wunderground v.1.15,2013-03-17 03:15:00,
2013-03-16 21:20:00,64.7,56.2,25.98,WNW,302,3.0,4.0,74,0.00,,,0.00,0,Wunderground v.1.15,2013-03-17 03:20:00,
2013-03-16 21:25:00,64.6,56.5,25.98,ENE,67,3.0,6.0,75,0.00,,,0.00,0,Wunderground v.1.15,2013-03-17 03:25:00,
2013-03-16 21:35:00,64.2,56.5,25.98,ESE,115,3.0,3.0,76,0.00,,,0.00,0,Wunderground v.1.15,2013-03-17 03:35:00,
2013-03-16 21:40:00,64.1,56.4,25.98,ENE,65,4.0,4.0,76,0.00,,,0.00,0,Wunderground v.1.15,2013-03-17 03:40:00,
2013-03-16 21:45:00,64.1,56.4,25.98,North,355,2.0,4.0,76,0.00,,,0.00,0,Wunderground v.1.15,2013-03-17 03:45:00,
2013-03-16 21:50:00,63.9,56.2,25.98,East,99,2.0,2.0,76,0.00,,,0.00,0,Wunderground v.1.15,2013-03-17 03:50:00,
2013-03-16 22:00:00,63.9,55.8,25.98,ESE,117,3.0,3.0,75,0.00,,,0.00,0,Wunderground v.1.15,2013-03-17 04:00:00,
2013-03-16 22:05:00,63.9,55.8,25.98,NNW,331,3.0,3.0,75,0.00,,,0.00,0,Wunderground v.1.15,2013-03-17 04:05:00,
2013-03-16 22:10:00,63.8,56.1,25.98,SSE,158,2.0,2.0,76,0.00,,,0.00,0,Wunderground v.1.15,2013-03-17 04:10:00,
2013-03-16 22:15:00,63.8,56.1,25.98,NNE,15,3.0,3.0,76,0.00,,,0.00,0,Wunderground v.1.15,2013-03-17 04:15:00,
2013-03-16 22:20:00,63.6,55.9,25.98,East,89,4.0,4.0,76,0.00,,,0.00,0,Wunderground v.1.15,2013-03-17 04:20:00,
2013-03-16 22:25:00,63.6,55.9,25.98,NNE,13,3.0,4.0,76,0.00,,,0.00,0,Wunderground v.1.15,2013-03-17 04:25:00,
2013-03-16 22:35:00,63.8,55.4,25.98,ESE,105,3.0,3.0,74,0.00,,,0.00,0,Wunderground v.1.15,2013-03-17 04:35:00,
2013-03-16 22:40:00,63.8,56.1,25.98,East,94,3.0,3.0,76,0.00,,,0.00,0,Wunderground v.1.15,2013-03-17 04:40:00,
2013-03-16 22:45:00,63.8,56.1,25.98,East,98,2.0,7.0,76,0.00,,,0.00,0,Wunderground v.1.15,2013-03-17 04:45:00,
2013-03-16 22:50:00,63.6,55.5,25.98,East,93,3.0,5.0,75,0.00,,,0.00,0,Wunderground v.1.15,2013-03-17 04:50:00,
2013-03-16 22:55:00,63.6,55.5,25.98,East,82,3.0,5.0,75,0.00,,,0.00,0,Wunderground v.1.15,2013-03-17 04:55:00,
2013-03-16 23:00:00,63.6,55.2,25.98,East,82,3.0,3.0,74,0.00,,,0.00,0,Wunderground v.1.15,2013-03-17 05:00:00,
2013-03-16 23:10:00,63.6,55.2,25.98,NNE,24,3.0,3.0,74,0.00,,,0.00,0,Wunderground v.1.15,2013-03-17 05:10:00,
2013-03-16 23:15:00,63.8,55.4,25.98,East,83,3.0,3.0,74,0.00,,,0.00,0,Wunderground v.1.15,2013-03-17 05:15:00,
2013-03-16 23:20:00,63.8,55.7,25.98,NE,44,4.0,4.0,75,0.00,,,0.00,0,Wunderground v.1.15,2013-03-17 05:20:00,
2013-03-16 23:25:00,63.6,55.9,25.98,ENE,69,4.0,4.0,76,0.00,,,0.00,0,Wunderground v.1.15,2013-03-17 05:25:00,
2013-03-16 23:35:00,63.4,55.3,25.98,ESE,110,3.0,7.0,75,0.00,,,0.00,0,Wunderground v.1.15,2013-03-17 05:35:00,
2013-03-16 23:40:00,63.3,55.6,25.98,NE,51,4.0,4.0,76,0.00,,,0.00,0,Wunderground v.1.15,2013-03-17 05:40:00,
2013-03-16 23:45:00,63.3,55.6,25.98,WNW,293,2.0,5.0,76,0.00,,,0.00,0,Wunderground v.1.15,2013-03-17 05:45:00,
2013-03-16 23:50:00,63.1,55.4,25.98,South,182,3.0,3.0,76,0.00,,,0.00,0,Wunderground v.1.15,2013-03-17 05:50:00,
2013-03-16 23:55:00,63.1,55.4,25.98,East,100,3.0,3.0,76,0.00,,,0.00,0,Wunderground v.1.15,2013-03-17 05:55:00,